Regional Weather Roundup
Issued by NWS

Home | Current Version | Previous Version | Text Only | Print | Product List | Glossary Off
Versions: 1 2 3 4 5 6 7 8 9 10 11 12 13 14 15 16 17 18 19 20 21 22 23 24 25 26 27 28 29 30 31 32 33 34 35 36 37 38 39 40 41 42 43 44 45 46 47 48 49 50

000
ASUS43 KLMK 020010
RWRKY
KENTUCKY REGIONAL WEATHER ROUNDUP
NATIONAL WEATHER SERVICE LOUISVILLE KY
800 PM EDT TUE SEP 01 2015

NOTE "FAIR" INDICATES FEW OR NO CLOUDS BELOW 12,000 FEET
WITH NO SIGNIFICANT WEATHER AND/OR OBSTRUCTIONS TO VISIBILITY.

KYZ001>023-026-027-061>063-070>075-020100-
WESTERN AND SOUTH CENTRAL KENTUCKY

CITY           SKY/WX    TMP DP  RH WIND       PRES   REMARKS
PADUCAH        PTCLDY    80  70  71 CALM      30.06S
HENDERSON      PTCLDY    82  72  69 CALM      30.06R
OWENSBORO      MOCLDY    84  72  67 SW5       30.08S
HOPKINSVILLE   MOCLDY    83  68  61 NW2       30.08R
BOWLING GREEN  PTCLDY    83  66  56 CALM      30.09R
GLASGOW        CLOUDY    78  67  69 CALM      30.10R
$$

KYZ024-025-028>034-038-045-046-053-020100-
NORTH CENTRAL KENTUCKY

CITY           SKY/WX    TMP DP  RH WIND       PRES   REMARKS
LOUISVILLE/SDF PTCLDY    86  65  49 SW7       30.08R THUNDER
LOUISVILLE/LOU CLOUDY    76  64  66 NE14G23   30.09R THUNDER
FORT KNOX      PTCLDY    78  69  73 NW3       30.08S
$$

KYZ035>037-039>044-047>052-055>060-089>105-020100-
NORTHEAST KENTUCKY

CITY           SKY/WX    TMP DP  RH WIND       PRES   REMARKS
LEXINGTON      MOCLDY    83  66  56 CALM      30.11S
COVINGTON      PTCLDY    81  67  62 W3        30.10R
FRANKFORT      PTCLDY    81  67  62 CALM      30.09S
$$

KYZ054-064>069-076>088-106>120-020100-
SOUTHEAST KENTUCKY

CITY           SKY/WX    TMP DP  RH WIND       PRES   REMARKS
JACKSON        PTCLDY    82  63  52 CALM      30.13S
LONDON         MOCLDY    81  65  58 CALM      30.12S
SOMERSET       MOCLDY    79  68  69 CALM      30.11F
MIDDLESBORO    PTCLDY    78  71  79 CALM      30.12S
MONTICELLO     MOCLDY    79  73  81 CALM      30.13S
$$




USA.gov is the U.S. government's official web portal to all federal, state and local government web resources and services.